Weather History for PASX - January, 2012

Change the Weather History Date:

Saturday, January 7, 2012

  Actual Average Record
Temperature  
Mean Temperature 6 °F -  
Max Temperature 8 °F 19 °F 41 °F (1981)
Min Temperature 5 °F 4 °F -38 °F (1952)
Degree Days  
Heating Degree Days 58    
Moisture  
Dew Point 3 °F    
Average Humidity 85    
Maximum Humidity 92    
Minimum Humidity 78    
Precipitation  
Precipitation 0.00 in - - ()
Sea Level Pressure  
Sea Level Pressure 29.09 in    
Wind  
Wind Speed 9 mph (ENE)    
Max Wind Speed 15 mph    
Max Gust Speed 22 mph    
Visibility 2 miles    
Events      
Averages and records for this station are not official NWS values.
T = Trace of Precipitation, MM = Missing Value Source: NWS Daily Summary

Daily Weather History Graph

Daily Weather History Graph

Search for Another Location

Airport or City:

Trip Planner

Search our weather history database for the weather conditions in past years. The results will help you decide how hot, cold, wet, or windy it might be!

Date:

Astronomy

Jan. 07, 2012 Rise Set
Actual Time 10:06 AM AKST 4:14 PM AKST
Civil Twilight 9:09 AM AKST 5:11 PM AKST
Nautical Twilight 8:13 AM AKST 6:08 PM AKST
Astronomical Twilight 7:21 AM AKST 6:59 PM AKST
Moon 3:03 PM AKST (1/7) 8:53 AM AKST (1/7)
Length of Visible Light 8h 01m
Length of Day
6h 08m
Waxing Gibbous, 98% of the Moon is Illuminated
Jan 7
Waxing Gibbous
Jan 8
Full
Jan 16
Last Quarter
Jan 22
New
Jan 30
First Quarter

Hourly Weather History & Observations

Time (AKST) Temp. Windchill Dew Point Humidity Pressure Visibility Wind Dir Wind Speed Gust Speed Precip Events Conditions
12:16 AM 6.8 °F -5.9 °F 1.4 °F 79% 29.46 in 10.0 mi NE 8.1 mph - N/A   Overcast
12:36 AM 6.8 °F -5.9 °F 1.4 °F 79% 29.46 in 9.0 mi NNE 8.1 mph - N/A   Overcast
12:56 AM 6.8 °F -5.9 °F 1.4 °F 79% 29.44 in 5.0 mi NE 8.1 mph - N/A   Overcast
1:16 AM 6.8 °F -6.9 °F 1.4 °F 79% 29.44 in 2.5 mi NE 9.2 mph - N/A   Overcast
1:36 AM 5.0 °F -10.0 °F 1.4 °F 85% 29.42 in 2.0 mi NE 10.4 mph - N/A   Overcast
1:56 AM 5.0 °F -10.0 °F 1.4 °F 85% 29.40 in 2.0 mi NE 10.4 mph - N/A   Overcast
2:16 AM 5.0 °F -10.8 °F 1.4 °F 85% 29.39 in 2.5 mi NE 11.5 mph 17.3 mph N/A   Overcast
2:36 AM 5.0 °F -8.1 °F 1.4 °F 85% 29.36 in 2.0 mi ENE 8.1 mph 18.4 mph N/A   Overcast
2:56 AM 5.0 °F -11.6 °F 1.4 °F 85% 29.35 in 2.0 mi ENE 12.7 mph - N/A   Overcast
3:16 AM 5.0 °F -10.8 °F 1.4 °F 85% 29.33 in 1.8 mi ENE 11.5 mph 16.1 mph N/A   Overcast
3:36 AM 5.0 °F -13.0 °F 1.4 °F 85% 29.32 in 1.5 mi ENE 15.0 mph 21.9 mph N/A   Overcast
3:56 AM 5.0 °F -10.8 °F 1.4 °F 85% 29.31 in 1.8 mi NE 11.5 mph 19.6 mph N/A   Overcast
4:16 AM 5.0 °F -10.8 °F 1.4 °F 85% 29.29 in 1.8 mi ENE 11.5 mph 18.4 mph N/A   Overcast
4:36 AM 5.0 °F -10.0 °F 3.2 °F 92% 29.28 in 2.0 mi ENE 10.4 mph - N/A   Overcast
4:56 AM 5.0 °F -10.0 °F -0.4 °F 78% 29.27 in 2.0 mi ENE 10.4 mph 16.1 mph N/A   Overcast
5:16 AM 5.0 °F -10.8 °F 1.4 °F 85% 29.26 in 2.0 mi ENE 11.5 mph 16.1 mph N/A   Overcast
5:36 AM 6.8 °F -8.6 °F 1.4 °F 79% 29.23 in 2.0 mi ENE 11.5 mph 18.4 mph N/A   Overcast
5:56 AM 5.0 °F -10.0 °F 1.4 °F 85% 29.22 in 1.8 mi ENE 10.4 mph 18.4 mph N/A   Overcast
6:16 AM 5.0 °F -10.0 °F 1.4 °F 85% 29.20 in 1.5 mi ENE 10.4 mph - N/A   Overcast
6:36 AM 5.0 °F -10.8 °F 1.4 °F 85% 29.18 in 2.0 mi ENE 11.5 mph 17.3 mph N/A   Overcast
6:56 AM 6.8 °F -8.6 °F 1.4 °F 79% 29.17 in 3.0 mi ENE 11.5 mph 17.3 mph N/A   Overcast
7:16 AM 6.8 °F -6.9 °F 1.4 °F 79% 29.15 in 5.0 mi ENE 9.2 mph - N/A   Overcast
7:36 AM 5.0 °F -10.0 °F 1.4 °F 85% 29.13 in 3.0 mi ENE 10.4 mph - N/A   Mostly Cloudy
7:56 AM 5.0 °F -10.0 °F 1.4 °F 85% 29.11 in 1.5 mi ENE 10.4 mph - N/A   Overcast
8:16 AM 5.0 °F -10.8 °F 1.4 °F 85% 29.09 in 1.2 mi East 11.5 mph - N/A   Overcast
8:36 AM 6.8 °F -8.6 °F 1.4 °F 79% 29.07 in 1.8 mi East 11.5 mph - N/A   Overcast
8:56 AM 6.8 °F -8.6 °F 1.4 °F 79% 29.06 in 1.5 mi ENE 11.5 mph - N/A   Overcast
9:16 AM 6.8 °F -7.8 °F 1.4 °F 79% 29.05 in 1.2 mi ENE 10.4 mph - N/A   Overcast
9:36 AM 6.8 °F -8.6 °F 1.4 °F 79% 29.04 in 1.8 mi ENE 11.5 mph - N/A   Overcast
9:56 AM 6.8 °F -8.6 °F 3.2 °F 85% 29.03 in 1.0 mi ENE 11.5 mph - N/A   Overcast
10:16 AM 6.8 °F -5.9 °F 3.2 °F 85% 29.02 in 1.2 mi East 8.1 mph - N/A   Overcast
10:36 AM 6.8 °F -5.9 °F 3.2 °F 85% 29.00 in 1.5 mi East 8.1 mph - N/A   Overcast
10:56 AM 6.8 °F -4.8 °F 3.2 °F 85% 28.99 in 1.5 mi East 6.9 mph - N/A   Overcast
11:16 AM 6.8 °F -4.8 °F 3.2 °F 85% 28.98 in 1.2 mi East 6.9 mph - N/A   Overcast
11:36 AM 6.8 °F -4.8 °F 3.2 °F 85% 28.97 in 1.8 mi East 6.9 mph - N/A   Overcast
11:56 AM 6.8 °F -5.9 °F 3.2 °F 85% 28.95 in 3.0 mi East 8.1 mph - N/A   Overcast
12:16 PM 6.8 °F -5.9 °F 3.2 °F 85% 28.93 in 1.2 mi East 8.1 mph - N/A   Overcast
12:36 PM 6.8 °F -4.8 °F 5.0 °F 92% 28.92 in 1.2 mi East 6.9 mph - N/A   Overcast
12:56 PM 6.8 °F -5.9 °F 3.2 °F 85% 28.91 in 1.5 mi East 8.1 mph - N/A   Overcast
1:16 PM 6.8 °F -4.8 °F 3.2 °F 85% 28.90 in 1.5 mi East 6.9 mph - N/A   Overcast
1:36 PM 6.8 °F -5.9 °F 3.2 °F 85% 28.89 in 1.0 mi East 8.1 mph - N/A   Overcast
1:56 PM 6.8 °F -5.9 °F 3.2 °F 85% 28.88 in 1.2 mi East 8.1 mph - N/A   Overcast
2:16 PM 6.8 °F -5.9 °F 3.2 °F 85% 28.87 in 1.0 mi East 8.1 mph - N/A   Overcast
2:36 PM 8.6 °F -1.3 °F 5.0 °F 85% 28.86 in 0.8 mi East 5.8 mph - N/A   Overcast
2:56 PM 8.6 °F -2.6 °F 5.0 °F 85% 28.85 in 0.8 mi East 6.9 mph - N/A   Overcast
3:16 PM 8.6 °F -1.3 °F 6.8 °F 92% 28.85 in 1.0 mi East 5.8 mph - N/A   Overcast
3:36 PM 8.6 °F -1.3 °F 5.0 °F 85% 28.84 in 1.5 mi East 5.8 mph - N/A   Overcast
3:56 PM 8.6 °F -2.6 °F 5.0 °F 85% 28.83 in 1.8 mi East 6.9 mph - N/A   Overcast
4:16 PM 8.6 °F 0.1 °F 6.8 °F 92% 28.83 in 1.0 mi East 4.6 mph - N/A   Overcast
4:36 PM 8.6 °F - 6.8 °F 92% 28.83 in 0.8 mi Calm Calm - N/A   Overcast
4:56 PM 8.6 °F 2.0 °F 6.8 °F 92% 28.83 in 1.2 mi East 3.5 mph - N/A   Overcast
5:36 PM 8.6 °F - 6.8 °F 92% 28.83 in 2.5 mi Calm Calm - N/A   Overcast
5:56 PM 8.6 °F - 6.8 °F 92% 28.83 in 3.0 mi Calm Calm - N/A   Overcast
6:16 PM 8.6 °F - 6.8 °F 92% 28.83 in 3.0 mi Calm Calm - N/A   Overcast
6:36 PM 8.6 °F - 6.8 °F 92% 28.83 in 2.5 mi Calm Calm - N/A   Overcast
6:56 PM 8.6 °F - 6.8 °F 92% 28.84 in - Calm Calm - N/A   Overcast
7:16 PM 8.6 °F - 6.8 °F 92% 28.84 in 4.0 mi Calm Calm - N/A   Overcast
7:36 PM 8.6 °F - 6.8 °F 92% 28.83 in 8.0 mi Calm Calm - N/A   Overcast
7:56 PM 8.6 °F - 6.8 °F 92% 28.84 in 5.0 mi Calm Calm - N/A   Overcast
8:16 PM 10.4 °F - 6.8 °F 85% 28.84 in 10.0 mi Calm Calm - N/A   Overcast
8:36 PM 10.4 °F 4.0 °F 8.6 °F 92% 28.84 in 10.0 mi East 3.5 mph - N/A   Overcast
8:56 PM 10.4 °F 4.0 °F 8.6 °F 92% 28.84 in 10.0 mi East 3.5 mph - N/A   Overcast
9:16 PM 10.4 °F - 8.6 °F 92% 28.84 in 10.0 mi Calm Calm - N/A   Overcast
9:36 PM 10.4 °F - 8.6 °F 92% 28.85 in 10.0 mi Calm Calm - N/A   Overcast
9:56 PM 12.2 °F - 10.4 °F 92% 28.85 in 10.0 mi Calm Calm - N/A   Overcast
10:16 PM 14.0 °F 6.5 °F 10.4 °F 86% 28.86 in 10.0 mi South 4.6 mph - N/A   Overcast
10:36 PM 14.0 °F 5.1 °F 10.4 °F 86% 28.86 in 10.0 mi South 5.8 mph - N/A   Overcast
10:56 PM 15.8 °F 7.2 °F 10.4 °F 79% 28.87 in 10.0 mi South 5.8 mph - N/A   Overcast
11:16 PM 15.8 °F 10.2 °F 12.2 °F 86% 28.87 in 10.0 mi East 3.5 mph - N/A   Overcast
11:36 PM 15.8 °F 10.2 °F 12.2 °F 86% 28.87 in 10.0 mi ESE 3.5 mph - N/A   Overcast
11:56 PM 15.8 °F - 12.2 °F 86% 28.87 in 10.0 mi Calm Calm - N/A   Overcast